When you browse on this site, cookies collect data to enhance your experience and personalize the content and advertising you see.
Visit our Privacy Policy to learn more. By continuing to use the site, you agree to this use of cookies and data.
  • In Switzerland
  • List of Countries
  • For 7 days
  • Water Temperature
  • Satellite Maps
  • Weather Map
  • Weather Widgets
  • user-avatar
    Login

    Hourly Weather Suhl

    Today, 18 July, Thursday

    Time Temperature Precipitation Wind Pressure Humidity
    00:00 +12°C° 0 mm 1 mps 714 mmHg 94%
    01:00 +11°C° 0 mm 0 mps 713 mmHg 94%
    02:00 +10°C° 0 mm 0 mps 713 mmHg 94%
    03:00 +10°C° 0 mm 0 mps 713 mmHg 94%
    04:00 +10°C° 0 mm 0 mps 713 mmHg 93%
    05:00 +12°C° 0 mm 0 mps 713 mmHg 88%
    06:00 +14°C° 0 mm 0 mps 714 mmHg 82%
    07:00 +15°C° 0 mm 0 mps 714 mmHg 77%
    08:00 +17°C° 0 mm 0 mps 714 mmHg 70%
    09:00 +21°C° 0 mm 1 mps 714 mmHg 63%
    10:00 +21°C° 0 mm 2 mps 715 mmHg 56%
    11:00 +23°C° 0 mm 2 mps 715 mmHg 53%
    12:00 +23°C° 0 mm 2 mps 714 mmHg 50%
    13:00 +24°C° 0 mm 3 mps 714 mmHg 47%
    14:00 +24°C° 0 mm 3 mps 714 mmHg 46%
    15:00 +25°C° 0 mm 3 mps 714 mmHg 44%
    16:00 +25°C° 0 mm 3 mps 714 mmHg 43%
    17:00 +24°C° 0 mm 2 mps 714 mmHg 50%
    18:00 +22°C° 0 mm 1 mps 714 mmHg 57%
    19:00 +21°C° 0 mm 1 mps 713 mmHg 64%
    20:00 +20°C° 0 mm 1 mps 714 mmHg 67%
    21:00 +17°C° 0 mm 0 mps 714 mmHg 69%
    22:00 +15°C° 0 mm 0 mps 714 mmHg 72%
    23:00 +15°C° 0.4 mm 0 mps 714 mmHg 78%

    Tomorrow, 19 July, Friday

    Time Temperature Precipitation Wind Pressure Humidity
    00:00 +15°C° 0.4 mm 1 mps 714 mmHg 84%
    01:00 +15°C° 0.4 mm 1 mps 714 mmHg 89%
    02:00 +15°C° 0.1 mm 1 mps 714 mmHg 90%
    03:00 +14°C° 0.1 mm 1 mps 714 mmHg 92%
    04:00 +14°C° 0.1 mm 1 mps 714 mmHg 93%
    05:00 +15°C° 0 mm 1 mps 715 mmHg 91%
    06:00 +15°C° 0 mm 1 mps 715 mmHg 90%
    07:00 +16°C° 0 mm 1 mps 715 mmHg 89%
    08:00 +19°C° 0.4 mm 1 mps 715 mmHg 84%
    09:00 +20°C° 0.4 mm 1 mps 716 mmHg 78%
    10:00 +20°C° 0.4 mm 2 mps 716 mmHg 73%
    11:00 +21°C° 0.5 mm 2 mps 716 mmHg 70%
    12:00 +23°C° 0.5 mm 2 mps 716 mmHg 67%
    13:00 +24°C° 0.5 mm 3 mps 716 mmHg 64%
    14:00 +22°C° 0.7 mm 3 mps 716 mmHg 67%
    15:00 +23°C° 0.7 mm 2 mps 716 mmHg 70%
    16:00 +23°C° 0.7 mm 2 mps 716 mmHg 72%
    17:00 +21°C° 0.5 mm 2 mps 716 mmHg 77%
    18:00 +21°C° 0.5 mm 1 mps 715 mmHg 82%
    19:00 +19°C° 0.5 mm 0 mps 715 mmHg 86%
    20:00 +20°C° 0 mm 1 mps 716 mmHg 88%
    21:00 +18°C° 0 mm 1 mps 716 mmHg 89%
    22:00 +16°C° 0 mm 1 mps 716 mmHg 90%
    23:00 +16°C° 0 mm 1 mps 716 mmHg 92%

    Day after tomorrow, 20 July, Saturday

    Time Temperature Precipitation Wind Pressure Humidity
    00:00 +16°C° 0 mm 1 mps 716 mmHg 93%
    01:00 +15°C° 0 mm 1 mps 716 mmHg 94%
    02:00 +15°C° 0 mm 1 mps 716 mmHg 95%
    03:00 +15°C° 0 mm 1 mps 716 mmHg 95%
    04:00 +15°C° 0 mm 1 mps 716 mmHg 96%
    05:00 +16°C° 0 mm 1 mps 716 mmHg 94%
    06:00 +18°C° 0 mm 1 mps 716 mmHg 92%
    07:00 +19°C° 0 mm 1 mps 716 mmHg 90%
    08:00 +20°C° 0 mm 2 mps 716 mmHg 81%
    09:00 +21°C° 0 mm 3 mps 716 mmHg 72%
    10:00 +24°C° 0 mm 3 mps 717 mmHg 63%
    11:00 +25°C° 0.1 mm 4 mps 716 mmHg 60%
    12:00 +26°C° 0.1 mm 4 mps 716 mmHg 57%
    13:00 +27°C° 0.1 mm 4 mps 716 mmHg 54%
    14:00 +26°C° 0.6 mm 4 mps 716 mmHg 58%
    15:00 +26°C° 0.6 mm 3 mps 716 mmHg 62%
    16:00 +25°C° 0.6 mm 3 mps 716 mmHg 67%
    17:00 +25°C° 0.1 mm 2 mps 716 mmHg 69%
    18:00 +24°C° 0.1 mm 2 mps 716 mmHg 71%
    19:00 +24°C° 0.1 mm 1 mps 716 mmHg 73%
    20:00 +22°C° 0.2 mm 1 mps 716 mmHg 77%
    21:00 +20°C° 0.2 mm 2 mps 716 mmHg 81%
    22:00 +19°C° 0.2 mm 2 mps 716 mmHg 85%
    23:00 +19°C° 0.4 mm 1 mps 716 mmHg 87%

    21 July, Sunday

    Time Temperature Precipitation Wind Pressure Humidity
    00:00 +18°C° 0.4 mm 1 mps 716 mmHg 89%
    01:00 +18°C° 0.4 mm 1 mps 716 mmHg 91%
    02:00 +16°C° 0 mm 1 mps 716 mmHg 92%
    03:00 +16°C° 0 mm 1 mps 716 mmHg 93%
    04:00 +16°C° 0 mm 1 mps 717 mmHg 94%
    05:00 +17°C° 0 mm 2 mps 717 mmHg 91%
    06:00 +18°C° 0 mm 2 mps 717 mmHg 89%
    07:00 +19°C° 0 mm 2 mps 718 mmHg 86%
    08:00 +20°C° 0 mm 3 mps 718 mmHg 77%
    09:00 +21°C° 0 mm 4 mps 719 mmHg 68%
    10:00 +23°C° 0 mm 4 mps 720 mmHg 58%
    11:00 +23°C° 0 mm 4 mps 720 mmHg 55%
    12:00 +25°C° 0 mm 4 mps 720 mmHg 51%
    13:00 +26°C° 0 mm 4 mps 720 mmHg 47%
    14:00 +26°C° 0 mm 4 mps 720 mmHg 47%
    15:00 +26°C° 0 mm 4 mps 720 mmHg 47%
    16:00 +26°C° 0 mm 3 mps 720 mmHg 47%
    17:00 +25°C° 0 mm 3 mps 720 mmHg 54%
    18:00 +24°C° 0 mm 2 mps 720 mmHg 60%
    19:00 +23°C° 0 mm 1 mps 721 mmHg 66%
    20:00 +21°C° 0 mm 1 mps 721 mmHg 71%
    21:00 +19°C° 0 mm 1 mps 721 mmHg 77%
    22:00 +16°C° 0 mm 1 mps 721 mmHg 83%
    23:00 +16°C° 0 mm 1 mps 721 mmHg 85%

    22 July, Monday

    Time Temperature Precipitation Wind Pressure Humidity
    00:00 +16°C° 0 mm 1 mps 721 mmHg 88%
    01:00 +15°C° 0 mm 1 mps 721 mmHg 91%
    02:00 +14°C° 0 mm 0 mps 721 mmHg 92%
    03:00 +14°C° 0 mm 0 mps 721 mmHg 92%
    04:00 +13°C° 0 mm 0 mps 721 mmHg 93%
    05:00 +15°C° 0 mm 0 mps 721 mmHg 87%
    06:00 +17°C° 0 mm 0 mps 722 mmHg 81%
    07:00 +19°C° 0 mm 0 mps 722 mmHg 74%
    08:00 +20°C° 0 mm 0 mps 722 mmHg 67%
    09:00 +22°C° 0 mm 0 mps 723 mmHg 59%
    10:00 +24°C° 0 mm 0 mps 723 mmHg 52%
    11:00 +27°C° 0 mm 1 mps 723 mmHg 49%
    12:00 +28°C° 0 mm 1 mps 723 mmHg 46%
    13:00 +28°C° 0 mm 1 mps 722 mmHg 42%
    14:00 +28°C° 0 mm 1 mps 722 mmHg 43%
    15:00 +28°C° 0 mm 2 mps 722 mmHg 44%
    16:00 +28°C° 0 mm 2 mps 722 mmHg 44%
    17:00 +27°C° 0 mm 2 mps 721 mmHg 51%
    18:00 +25°C° 0 mm 2 mps 721 mmHg 58%
    19:00 +24°C° 0 mm 3 mps 721 mmHg 65%
    20:00 +22°C° 0 mm 3 mps 721 mmHg 68%
    21:00 +20°C° 0 mm 2 mps 721 mmHg 71%
    22:00 +19°C° 0 mm 2 mps 721 mmHg 75%
    23:00 +18°C° 0 mm 2 mps 721 mmHg 77%

    23 July, Tuesday

    Time Temperature Precipitation Wind Pressure Humidity
    00:00 +17°C° 0 mm 2 mps 721 mmHg 80%
    01:00 +18°C° 0 mm 1 mps 721 mmHg 82%
    02:00 +16°C° 0 mm 1 mps 721 mmHg 84%
    03:00 +16°C° 0 mm 1 mps 720 mmHg 86%
    04:00 +16°C° 0 mm 1 mps 720 mmHg 87%
    05:00 +18°C° 0 mm 1 mps 720 mmHg 82%
    06:00 +20°C° 0 mm 1 mps 720 mmHg 77%
    07:00 +21°C° 0 mm 1 mps 721 mmHg 72%
    08:00 +23°C° 0 mm 1 mps 721 mmHg 66%
    09:00 +25°C° 0 mm 2 mps 721 mmHg 59%
    10:00 +26°C° 0 mm 2 mps 721 mmHg 52%
    11:00 +27°C° 0 mm 2 mps 721 mmHg 49%
    12:00 +28°C° 0 mm 2 mps 721 mmHg 46%
    13:00 +29°C° 0 mm 2 mps 721 mmHg 43%
    14:00 +29°C° 0 mm 2 mps 720 mmHg 43%
    15:00 +29°C° 0 mm 3 mps 720 mmHg 43%
    16:00 +29°C° 0 mm 3 mps 719 mmHg 43%
    17:00 +27°C° 0 mm 3 mps 719 mmHg 48%
    18:00 +26°C° 0 mm 3 mps 719 mmHg 54%
    19:00 +23°C° 0 mm 4 mps 719 mmHg 60%
    20:00 +22°C° 0 mm 3 mps 719 mmHg 60%
    21:00 +20°C° 0 mm 3 mps 719 mmHg 59%
    22:00 +18°C° 0 mm 2 mps 719 mmHg 59%
    23:00 +18°C° 0 mm 2 mps 718 mmHg 62%
    Show more